Miscellaneous Local Product
Issued by NWS North Platte, NE

Home | Current Version | Previous Version | Text Only | Print | Product List | Glossary On
Versions: 1 2 3 4 5 6 7 8 9 10 11 12 13 14 15 16 17 18 19 20 21 22 23 24 25 26 27 28 29 30 31 32 33 34 35 36 37 38 39 40 41 42 43 44 45 46 47 48 49 50
000
AXUS43 KLBF 201310
MISLBF


WESTERN AND NORTH CENTRAL NEBRASKA HOURLY WEATHER ROUNDUP
NATIONAL WEATHER SERVICE NORTH PLATTE NE
800 AM CDT SAT SEP 20 2014

***STATIONS NOT REPORTING VARIABLES SUCH AS SKY/WEATHER OR
PRESSURE ARE PROVIDED BY THE NEBRASKA DEPARTMENT OF
ROADS...RAWS...AND APRS NETWORKS...AND ARE NOT UNDER
NATIONAL WEATHER SERVICE QUALITY CONTROL***

...OBSERVATIONS IN AND NEAR THE EASTERN PANHANDLE OF NEBRASKA...

CITY           SKY/WX    TMP DP  RH WIND       PRES   REMARKS
PINE RIDGE     MOCLDY    46  44  93 CALM      30.09R
CHADRON        CLEAR     49  46  90 SW5       30.11R
ALLIANCE       CLEAR     48  45  89 W7        30.12R
SIDNEY         CLEAR     54  49  83 NW9       30.14R
WHITECLAY        N/A     45  42  91 E5          N/A
RUSHVILLE        N/A     47  44  90 NE5         N/A
CRESCENT LAKE    N/A     56  49  79 NW7         N/A
LISCO            N/A     62  48  60 SW12        N/A
BIG SPRINGS      N/A     61  54  78 CALM        N/A
$$

...OBSERVATIONS IN NORTH CENTRAL NEBRASKA...

CITY           SKY/WX    TMP DP  RH WIND       PRES   REMARKS
VALENTINE      PTCLDY    53  51  93 W8        30.02R
THEDFORD       CLEAR     57  52  82 CALM      30.04R
AINSWORTH      PTCLDY    56  51  82 W3        30.01R
O`NEILL        CLOUDY    61  58  89 W5        29.97R
ORD            CLEAR     62  54  74 N7        29.95R
BROKEN BOW     CLEAR     60  53  77 N9        29.99R
SPRINGVIEW       N/A     58  54  88 CALM        N/A
ROSE             N/A     60  56  87 CALM        N/A
NEWPORT          N/A     57  55  94 W5          N/A
COMSTOCK         N/A     67  58  73 CALM        N/A
CHAMBERS         N/A     59  55  88 CALM        N/A
$$

...OBSERVATIONS IN SOUTHWEST NEBRASKA AND FAR NORTHEAST COLORADO...

CITY           SKY/WX    TMP DP  RH WIND       PRES   REMARKS
WRAY           FAIR      61  54  76 NW8       30.09R
HOLYOKE        FAIR      59  54  82 N7        30.10R
IMPERIAL       CLEAR     61  53  75 N8        30.05R
OGALLALA       CLEAR     63  52  67 N10       30.05R
NORTH PLATTE   CLEAR     58  53  84 N6        30.02R
MCCOOK         CLEAR     64  60  87 N16       29.97R
LEXINGTON      CLEAR     61  58  90 N5        29.98R
PAXTON           N/A     62  54  74 N7          N/A
SUTHERLAND       N/A     58  51  76 E5          N/A
BRADY            N/A     59  53  82 CALM        N/A
GOTHENBURG       N/A     64  52  66 N3          N/A
CALLAWAY         N/A     62  55  77 N9          N/A
$$

...SOME WEATHER OBSERVATIONS FROM AROUND THE REGION...

CITY           SKY/WX    TMP DP  RH WIND       PRES   REMARKS
DENVER         PTCLDY    54  46  74 NE8       30.20R
LARAMIE        PTCLDY    39  34  82 CALM      30.31R
CHEYENNE       CLEAR     52  43  71 NW9       30.26R
SCOTTSBLUFF    CLEAR     52  48  86 NW9       30.15R
RAPID CITY     CLEAR     54  46  74 NW9       30.05S
PIERRE         CLEAR     55  50  83 W3        29.93R
WINNER         FAIR      59  52  77 W7        29.97R
SIOUX FALLS    MOCLDY    62  58  86 W5        29.89S
OMAHA          CLOUDY    70  64  81 S13       29.91R
GRAND ISLAND   CLEAR     64  60  87 N6        29.94R
KANSAS CITY    PTCLDY    68  67  96 SW8       29.99R FOG
WICHITA        PTCLDY    67  65  93 S9        29.97R FOG
HAYS           CLEAR     64  57  77 SW13      29.94S
LIBERAL        CLEAR     63  57  82 S8        30.02S
GOODLAND       CLEAR     62  55  77 NW14      30.03R
$$



USA.gov is the U.S. government's official web portal to all federal, state and local government web resources and services.